Terminal Aerodrome Forecast
Issued by NWS

Home | Current Version | Previous Version | Text Only | Print | Product List | Glossary On
Versions: 1 2 3 4 5 6 7 8 9 10 11 12
000
FTUS42 TJSJ 091120
TAFIST
TAF
TIST 091120Z 0912/1012 07006KT P6SM FEW024
     FM091300 07013G18KT P6SM FEW030 SCT050
     FM092300 09008KT P6SM FEW025=

USA.gov is the U.S. government's official web portal to all federal, state and local government web resources and services.